{"data":{"norad_id":62732,"epoch":"2026-09-22T22:09:53.025696Z","epoch_age_seconds":110149,"freshness":"FRESH","line1":"1 62732U 25013D   26265.92353039  .00001977  00000+0  11941-3 0  9998","line2":"2 62732  97.6631  75.5226 0009718  60.0823 300.1371 15.11863462 92042","mean_motion":15.11863462,"eccentricity":0.0009718,"inclination_deg":97.6631,"raan_deg":75.5226,"arg_perigee_deg":60.0823,"mean_anomaly_deg":300.1371,"bstar":0.00011941,"rev_number":9204,"period_min":95.246696291943,"perigee_km":523.80344955346,"apogee_km":537.23111001164,"semimajor_km":6908.6542797825,"source":"CELESTRAK","updated_at":"2026-09-23T09:00:21.592247Z"}}